Regional Weather Roundup
Issued by NWS Bismarck, ND

Home | Current Version | Previous Version | Text Only | Print | Product List | Glossary On
Versions: 1 2 3 4 5 6 7 8 9 10 11 12 13 14 15 16 17 18 19 20 21 22 23 24 25 26 27 28 29 30 31 32 33 34 35 36 37 38 39 40 41 42 43 44 45 46 47 48 49 50
000
ASUS43 KBIS 272010
RWRBIS

NWR BROADCAST TEXT
NATIONAL WEATHER SERVICE BISMARCK ND
300 PM CDT MON MAR 27 2017

NOTE: "FAIR" INDICATES FEW OR NO CLOUDS BELOW 12,000 FEET WITH NO
SIGNIFICANT WEATHER AND/OR OBSTRUCTIONS TO VISIBILITY.


CITY           SKY/WX    TMP DP  RH WIND       PRES   REMARKS
WILLISTON      FAIR      57  29  34 E10       29.90F
MINOT          FAIR      45  39  79 N9        29.93S
MINOT AFB      CLOUDY    39  37  92 N14       29.93F
BISMARCK       FAIR      64  33  31 VRB5      29.91F
DICKINSON      FAIR      60  23  24 S12G18    29.85F
GARRISON         N/A     57  37  47 SE3       29.90F
HETTINGER ARPT FAIR      59  29  31 S7G17     29.88F
JAMESTOWN      FAIR      57  37  47 VRB3      29.92F
HAZEN          MOCLDY    59  37  44 CALM      29.90F
LINTON         FAIR      59  41  51 S10       29.93S
MANDAN         FAIR      59  34  38 VRB3G12   29.91S
STANLEY        FAIR      46  43  87 NE7       29.95S
TIOGA          CLOUDY    48  39  71 E8        29.94S
WATFORD CITY   FAIR      57  34  41 E12       29.88F
$$

CITY           SKY/WX    TMP DP  RH WIND       PRES   REMARKS
GRAND FORKS    CLOUDY    42  39  89 CALM      30.01R
GRAND FORKS AF CLOUDY    42  42  99 CALM      30.01R
DEVILS LAKE    FAIR      52  40  63 SE9       29.94F
FARGO          FAIR      56  40  55 VRB3      29.96F
CAVALIER       CLOUDY    36  36 100 NE3       30.01F FOG
GRAFTON        CLOUDY    39  39 100 CALM      30.03S
GWINNER        CLEAR     57  37  47 MISG      29.95F
LANGDON        CLOUDY    41  41 100 E7        29.98F FOG
ROLLA          FOG       34  34 100 N9        29.97S VSB<1/4
$$

CITY           SKY/WX    TMP DP  RH WIND       PRES   REMARKS
ABERDEEN       FAIR      59  33  37 E5        29.93F
MOBRIDGE       FAIR      60  35  39 S9        29.88F
BUFFALO          N/A     60  28  29 SE14G21   29.79F
RAPID CITY     FAIR      54  42  64 E9        29.85F
GLASGOW        CLOUDY    52  30  43 NW6       29.86S
SIDNEY         FAIR      62  35  36 E8        29.85F
WOLF POINT     CLOUDY    58  31  35 E7        29.87R
GLENDIVE       FAIR      61  30  31 S14       29.84F
MILES CITY     FAIR      61  34  36 S8        29.81F
BAKER          FAIR      60  27  28 S8G21     29.86F
$$

CITY           SKY/WX    TMP DP  RH WIND       PRES   REMARKS
BILLINGS       PTSUNNY   57  28  33 CALM      29.82F
GREAT FALLS    CLOUDY    53  26  35 W13       29.83S
REGINA         CLOUDY    43  36  75 E8        29.97S
ESTEVAN        CLOUDY    43  39  87 NE8       29.97S FOG
$$




USA.gov is the U.S. government's official web portal to all federal, state and local government web resources and services.